HAZ5104 ZWWW-ZSPD

Flight info

Callsign HAZ5104
Flight time N/A
Altitude 35100
Route WUR W190 ADPET W188 DAKPA W189 AKLAS W192 ESDEX W191 DNC W565 BIGUX W214 HO H14 P396 H131 ATGE N W283 SUDGO W4 UPSIK W282 NUGSA H11 ML W118 REVKU H48 FYG B208 HFE R343 EKIMU
Aircraft A339/H-SADE1E2E3GHIJ3J5M1P2RWXY/LB2D1

Departure

Time 2026-04-29 10:05
Airport Ürümqi Tianshan International Airport (ZWWW)

Arrival

Time N/A
Airport Shanghai Pudong International Airport (ZSPD)
Time Latitude Longitude Altitude Speed Heading
2026-04-29 09:39 43.91381 87.46912 2149 ft 0 kts 72°
2026-04-29 09:55 43.91379 87.46905 2149 ft 2 kts 72°
2026-04-29 09:55 43.91375 87.46885 2149 ft 2 kts 73°
2026-04-29 09:55 43.91370 87.46865 2149 ft 2 kts 73°
2026-04-29 09:55 43.91367 87.46853 2149 ft 2 kts 71°
2026-04-29 09:56 43.91360 87.46835 2149 ft 2 kts 45°
2026-04-29 09:56 43.91349 87.46822 2149 ft 2 kts 27°
2026-04-29 09:56 43.91335 87.46815 2149 ft 2 kts
2026-04-29 09:56 43.91320 87.46815 2149 ft 2 kts 348°
2026-04-29 09:57 43.91314 87.46817 2149 ft 1 kts 342°
2026-04-29 09:57 43.91312 87.46818 2149 ft 0 kts 342°
2026-04-29 09:58 43.91314 87.46817 2149 ft 1 kts 342°
2026-04-29 09:59 43.91359 87.46798 2149 ft 11 kts 344°
2026-04-29 09:59 43.91448 87.46761 2149 ft 14 kts 343°
2026-04-29 09:59 43.91522 87.46700 2149 ft 9 kts 290°
2026-04-29 09:59 43.91512 87.46613 2149 ft 9 kts 253°
2026-04-29 10:00 43.91519 87.46540 2149 ft 7 kts 310°
2026-04-29 10:00 43.91571 87.46502 2149 ft 11 kts 343°
2026-04-29 10:00 43.91662 87.46466 2149 ft 15 kts 343°
2026-04-29 10:00 43.91765 87.46423 2148 ft 15 kts 343°
2026-04-29 10:01 43.91867 87.46363 2148 ft 13 kts 338°
2026-04-29 10:01 43.91911 87.46274 2148 ft 12 kts 262°
2026-04-29 10:01 43.91888 87.46146 2148 ft 13 kts 253°
2026-04-29 10:01 43.91863 87.46019 2148 ft 13 kts 254°
2026-04-29 10:02 43.91834 87.45888 2148 ft 15 kts 253°
2026-04-29 10:02 43.91801 87.45738 2148 ft 17 kts 253°
2026-04-29 10:02 43.91768 87.45579 2148 ft 18 kts 253°
2026-04-29 10:02 43.91730 87.45401 2148 ft 19 kts 252°
2026-04-29 10:03 43.91704 87.45249 2148 ft 12 kts 277°
2026-04-29 10:03 43.91764 87.45176 2148 ft 12 kts 341°
2026-04-29 10:03 43.91849 87.45141 2148 ft 13 kts 343°
2026-04-29 10:03 43.91923 87.45122 2148 ft 7 kts 19°
2026-04-29 10:04 43.91953 87.45179 2148 ft 8 kts 69°
2026-04-29 10:04 43.92024 87.45514 2148 ft 68 kts 73°
2026-04-29 10:04 43.92219 87.46431 2148 ft 126 kts 72°
2026-04-29 10:04 43.92508 87.47808 2184 ft 170 kts 67°
2026-04-29 10:05 43.92821 87.49423 2610 ft 178 kts 69°
2026-04-29 10:05 43.93209 87.51002 3216 ft 177 kts 63°
2026-04-29 10:05 43.93642 87.52574 3818 ft 179 kts 64°
2026-04-29 10:05 43.94078 87.54195 4158 ft 186 kts 64°
2026-04-29 10:06 43.94522 87.55923 4408 ft 200 kts 65°
2026-04-29 10:06 43.94986 87.57800 4661 ft 214 kts 66°
2026-04-29 10:06 43.95683 87.59657 4898 ft 223 kts 39°
2026-04-29 10:06 43.97053 87.60708 5165 ft 231 kts
2026-04-29 10:07 43.98665 87.60623 5575 ft 237 kts 349°
2026-04-29 10:07 44.00294 87.60229 6131 ft 239 kts 349°
2026-04-29 10:07 44.01926 87.59866 6598 ft 244 kts 349°
2026-04-29 10:07 44.03641 87.59494 7007 ft 253 kts 349°
2026-04-29 10:08 44.05378 87.59122 7556 ft 255 kts 349°
2026-04-29 10:08 44.07112 87.58752 8146 ft 256 kts 348°
2026-04-29 10:08 44.08776 87.58396 8703 ft 257 kts 348°
2026-04-29 10:08 44.10537 87.58041 9292 ft 259 kts 352°
2026-04-29 10:09 44.12366 87.58181 9877 ft 266 kts
2026-04-29 10:09 44.14164 87.58909 10251 ft 279 kts 13°
2026-04-29 10:09 44.16045 87.59827 10521 ft 294 kts 14°
2026-04-29 10:09 44.18034 87.60821 10785 ft 309 kts 14°
2026-04-29 10:10 44.20102 87.61854 11042 ft 323 kts 14°
2026-04-29 10:10 44.22184 87.62888 11277 ft 337 kts 14°
2026-04-29 10:10 44.24493 87.64029 11526 ft 351 kts 14°
2026-04-29 10:10 44.26810 87.65173 11819 ft 363 kts 15°
2026-04-29 10:11 44.29218 87.66367 12365 ft 366 kts 15°
2026-04-29 10:11 44.31593 87.67640 12957 ft 371 kts 20°
2026-04-29 10:11 44.33854 87.69377 13543 ft 378 kts 28°
2026-04-29 10:11 44.35976 87.71622 14109 ft 386 kts 35°
2026-04-29 10:12 44.37980 87.74117 14671 ft 390 kts 37°
2026-04-29 10:12 44.39977 87.76677 15248 ft 392 kts 37°
2026-04-29 10:12 44.42001 87.79278 15820 ft 395 kts 37°
2026-04-29 10:12 44.44006 87.81847 16384 ft 397 kts 37°
2026-04-29 10:13 44.46038 87.84444 16935 ft 399 kts 37°
2026-04-29 10:13 44.48093 87.87066 17473 ft 402 kts 37°
2026-04-29 10:13 44.50153 87.89694 18017 ft 404 kts 37°
2026-04-29 10:13 44.52232 87.92350 18536 ft 407 kts 37°
2026-04-29 10:14 44.54342 87.95066 19042 ft 412 kts 39°
2026-04-29 10:14 44.56080 87.98304 19432 ft 430 kts 58°
2026-04-29 10:14 44.56989 88.02322 19868 ft 446 kts 77°
2026-04-29 10:14 44.56945 88.06715 20351 ft 457 kts 94°
2026-04-29 10:15 44.56471 88.11105 20818 ft 460 kts 95°
2026-04-29 10:15 44.56007 88.15520 21228 ft 464 kts 94°
2026-04-29 10:15 44.55566 88.20028 21640 ft 467 kts 94°
2026-04-29 10:15 44.55153 88.24513 22053 ft 470 kts 94°
2026-04-29 10:16 44.54752 88.29037 22481 ft 472 kts 94°
2026-04-29 10:16 44.54478 88.32128 22753 ft 474 kts 94°
2026-04-29 10:16 44.53937 88.38193 23275 ft 478 kts 94°
2026-04-29 10:16 44.53518 88.42847 23634 ft 481 kts 94°
2026-04-29 10:17 44.53090 88.47516 23989 ft 484 kts 94°
2026-04-29 10:17 44.52663 88.52195 24366 ft 487 kts 94°
2026-04-29 10:17 44.52253 88.56863 24717 ft 489 kts 94°
2026-04-29 10:17 44.51840 88.61607 25045 ft 492 kts 94°
2026-04-29 10:18 44.51427 88.66329 25357 ft 494 kts 95°
2026-04-29 10:18 44.51005 88.71141 25651 ft 497 kts 95°
2026-04-29 10:18 44.50582 88.75909 25962 ft 500 kts 95°
2026-04-29 10:18 44.50148 88.80768 26266 ft 502 kts 95°
2026-04-29 10:19 44.49715 88.85579 26566 ft 504 kts 95°
2026-04-29 10:19 44.49275 88.90441 26828 ft 506 kts 95°
2026-04-29 10:19 44.48834 88.95300 27073 ft 509 kts 95°
2026-04-29 10:19 44.48382 89.00232 27361 ft 511 kts 95°
2026-04-29 10:20 44.47932 89.05134 27732 ft 511 kts 95°
2026-04-29 10:20 44.47478 89.10046 28161 ft 509 kts 95°
2026-04-29 10:20 44.47022 89.14907 28552 ft 508 kts 96°
2026-04-29 10:20 44.46557 89.19826 28922 ft 508 kts 96°
2026-04-29 10:21 44.46096 89.24674 29261 ft 508 kts 96°
2026-04-29 10:21 44.45625 89.29598 29598 ft 508 kts 96°
2026-04-29 10:21 44.45159 89.34448 29949 ft 507 kts 96°
2026-04-29 10:21 44.44693 89.39284 30279 ft 507 kts 96°
2026-04-29 10:22 44.44217 89.44197 30619 ft 506 kts 96°
2026-04-29 10:22 44.43747 89.49043 30944 ft 506 kts 96°
2026-04-29 10:22 44.43274 89.53889 31232 ft 506 kts 96°
2026-04-29 10:22 44.42791 89.58780 31540 ft 506 kts 97°
2026-04-29 10:23 44.42313 89.63609 31825 ft 506 kts 98°
2026-04-29 10:23 44.41718 89.68410 32080 ft 507 kts 102°
2026-04-29 10:23 44.40911 89.73220 32332 ft 507 kts 105°
2026-04-29 10:23 44.39925 89.77962 32602 ft 506 kts 107°
2026-04-29 10:24 44.38905 89.82639 32883 ft 506 kts 107°
2026-04-29 10:24 44.37879 89.87307 33152 ft 505 kts 108°
2026-04-29 10:24 44.36852 89.91981 33410 ft 505 kts 107°
2026-04-29 10:24 44.35836 89.96618 33611 ft 506 kts 108°
2026-04-29 10:25 44.34810 90.01308 33788 ft 507 kts 108°
2026-04-29 10:25 44.33771 90.06039 33987 ft 507 kts 108°
2026-04-29 10:25 44.32756 90.10672 34184 ft 508 kts 108°
2026-04-29 10:25 44.31720 90.15383 34344 ft 509 kts 108°
2026-04-29 10:26 44.30682 90.20094 34509 ft 510 kts 108°
2026-04-29 10:26 44.29642 90.24809 34701 ft 510 kts 108°
2026-04-29 10:26 44.28594 90.29545 34879 ft 511 kts 108°
2026-04-29 10:26 44.27544 90.34284 35029 ft 512 kts 108°
2026-04-29 10:27 44.25440 90.43750 35139 ft 514 kts 108°
2026-04-29 10:27 44.24384 90.48490 35134 ft 514 kts 108°
2026-04-29 10:28 44.22269 90.57940 35140 ft 514 kts 108°
2026-04-29 10:28 44.20131 90.67453 35129 ft 518 kts 109°
2026-04-29 10:29 44.17971 90.77012 35144 ft 527 kts 109°
2026-04-29 10:29 44.15749 90.86809 35139 ft 535 kts 109°
2026-04-29 10:30 44.13506 90.96652 35146 ft 535 kts 109°
2026-04-29 10:30 44.11251 91.06506 35136 ft 536 kts 109°
2026-04-29 10:31 44.08992 91.16346 35130 ft 536 kts 109°
2026-04-29 10:31 44.06732 91.26131 35134 ft 535 kts 110°
2026-04-29 10:31 44.05320 91.30847 35119 ft 531 kts 121°
2026-04-29 10:32 44.03254 91.35118 35130 ft 525 kts 133°
2026-04-29 10:32 44.00702 91.38656 35143 ft 520 kts 144°
2026-04-29 10:32 43.97778 91.41425 35148 ft 513 kts 155°
2026-04-29 10:32 43.94537 91.43410 35148 ft 505 kts 166°
2026-04-29 10:33 43.91151 91.44536 35147 ft 497 kts 176°
2026-04-29 10:33 43.84319 91.45721 35138 ft 495 kts 178°
2026-04-29 10:34 43.77493 91.46883 35144 ft 497 kts 178°
2026-04-29 10:34 43.70690 91.48098 35131 ft 497 kts 178°
2026-04-29 10:35 43.63845 91.49340 35125 ft 496 kts 178°
2026-04-29 10:35 43.57041 91.50573 35124 ft 495 kts 178°
2026-04-29 10:36 43.50204 91.51807 35104 ft 496 kts 178°
2026-04-29 10:36 43.43378 91.53040 35089 ft 496 kts 178°
2026-04-29 10:37 43.36550 91.54282 35078 ft 495 kts 178°
2026-04-29 10:37 43.29751 91.55516 35068 ft 494 kts 178°
2026-04-29 10:38 43.22946 91.56741 35055 ft 495 kts 179°
2026-04-29 10:38 43.16126 91.57969 35051 ft 495 kts 179°
2026-04-29 10:39 43.09306 91.59196 35012 ft 495 kts 179°
2026-04-29 10:39 43.02473 91.60419 34987 ft 494 kts 179°
2026-04-29 10:40 42.95684 91.61633 34979 ft 494 kts 179°
2026-04-29 10:40 42.88880 91.62849 34957 ft 494 kts 179°
2026-04-29 10:41 42.82062 91.64062 34952 ft 495 kts 179°
2026-04-29 10:41 42.75248 91.65270 34949 ft 495 kts 180°
2026-04-29 10:42 42.68406 91.66485 34963 ft 495 kts 180°
2026-04-29 10:42 42.61611 91.67685 34973 ft 495 kts 181°
2026-04-29 10:43 42.54775 91.68890 34977 ft 494 kts 180°
2026-04-29 10:43 42.47966 91.70099 34991 ft 495 kts 180°
2026-04-29 10:44 42.41156 91.71327 35000 ft 497 kts 181°
2026-04-29 10:44 42.34308 91.72562 35014 ft 495 kts 181°
2026-04-29 10:45 42.27512 91.73774 35028 ft 498 kts 181°
2026-04-29 10:45 42.20633 91.75004 35038 ft 498 kts 181°
2026-04-29 10:46 42.13795 91.76234 35047 ft 496 kts 181°
2026-04-29 10:46 42.06977 91.77453 35053 ft 497 kts 181°
2026-04-29 10:47 42.00085 91.78674 35059 ft 497 kts 182°
2026-04-29 10:47 41.93245 91.79883 35062 ft 499 kts 182°
2026-04-29 10:48 41.86386 91.81091 35063 ft 498 kts 182°
2026-04-29 10:48 41.79541 91.82297 35072 ft 498 kts 182°
2026-04-29 10:49 41.72691 91.83588 35081 ft 504 kts 177°
2026-04-29 10:49 41.65982 91.86791 35083 ft 525 kts 160°
2026-04-29 10:49 41.62846 91.89384 35082 ft 537 kts 150°
2026-04-29 10:50 41.59964 91.92612 35080 ft 547 kts 141°
2026-04-29 10:50 41.55257 92.00683 35082 ft 559 kts 127°
2026-04-29 10:51 41.51132 92.09454 35074 ft 559 kts 126°
2026-04-29 10:51 41.47000 92.18188 35073 ft 558 kts 127°
2026-04-29 10:52 41.42834 92.26840 35070 ft 558 kts 127°
2026-04-29 10:52 41.38611 92.35528 35070 ft 559 kts 127°
2026-04-29 10:53 41.34419 92.44134 35073 ft 558 kts 127°
2026-04-29 10:53 41.30198 92.52766 35077 ft 559 kts 127°
2026-04-29 10:54 41.25963 92.61405 35076 ft 559 kts 127°
2026-04-29 10:54 41.23841 92.65726 35231 ft 558 kts 128°
2026-04-29 10:54 41.21728 92.70021 35040 ft 558 kts 128°
2026-04-29 10:55 41.17483 92.78641 35209 ft 558 kts 128°
2026-04-29 10:55 41.13242 92.87214 35100 ft 558 kts 128°
2026-04-29 10:56 41.08991 92.95788 35082 ft 559 kts 128°
2026-04-29 10:56 41.04710 93.04408 35092 ft 559 kts 127°
2026-04-29 10:57 41.00433 93.12989 35094 ft 559 kts 127°
2026-04-29 10:57 40.96162 93.21538 35092 ft 558 kts 127°
2026-04-29 10:58 40.91891 93.30051 35084 ft 560 kts 127°
2026-04-29 10:58 40.87598 93.38593 35083 ft 560 kts 127°
2026-04-29 10:59 40.83298 93.47130 35083 ft 560 kts 127°
2026-04-29 10:59 40.78993 93.55651 35090 ft 560 kts 127°
2026-04-29 11:00 40.74564 93.64048 35087 ft 557 kts 131°
2026-04-29 11:00 40.69773 93.72040 35087 ft 557 kts 133°
2026-04-29 11:01 40.64943 93.79995 35087 ft 557 kts 133°
2026-04-29 11:01 40.60106 93.87970 35084 ft 558 kts 133°
2026-04-29 11:02 40.55270 93.95943 35078 ft 558 kts 133°
2026-04-29 11:02 40.50427 94.03904 35069 ft 559 kts 133°
2026-04-29 11:03 40.45610 94.11813 35058 ft 559 kts 132°
2026-04-29 11:03 40.40742 94.19778 35055 ft 559 kts 132°
2026-04-29 11:04 40.35887 94.27701 35049 ft 558 kts 133°